Temperature
-1 -1 -0 -0 -0 -1 -1 -1 -0 0 -0 1 0 -0 0 0 0 0 0 0 0 0 0 0 0 0 0 0 0 0 0 0 0 0 0 0 0 0 1 1 1 1 1 1
-1 -1 -1 -1 -1 -1 -1 -1 -1 -1 -0 -0 -0 -0 -0 -0 -0 -0 -0 -0 -0 -0 -0 -0 -0 -0 -0 -0 -1 -0 -0 -0 -0 -0 -0 -0 -0 -0 -0 -0 0 0 0 0
-2 -2 -1 -1 -1 -1 -1 -2 -1 -1 -0 -1 -1 -1 -1 -0 -0 -0 -0 -0 -1 -0 -0 -1 -1 -1 -1 -1 -1 -1 -1 -1 -1 -1 -1 -1 -1 -1 -1 -1 -1 -1 -1 -0
-3 -2 -1 0 -2 -2 -1 -2 -2 -2 -2 -2 -1 -1 -0 0 -0 -0 -0 -0 -1 -1 -1 -1 -1 -1 -1 -1 -2 -2 -2 -2 -2 -2 -1 -2 -2 -1 -1 -1 -1 -1 -1 -1
-3 -3 -2 -1 -2 -2 -2 -2 -3 -2 -2 -2 -2 -2 -1 0 -0 -0 -0 -1 -1 -1 -1 -1 -1 -1 -2 -2 -2 -2 -2 -2 -2 -2 -2 -2 -2 -2 -2 -2 -2 -2 -2 -2
-4 -2 -1 -0 -2 -2 -2 -2 -2 -3 -3 -3 -3 -2 -2 -0 -1 -1 -1 -1 -1 -1 -1 -1 -2 -2 -2 -2 -2 -2 -2 -2 -3 -3 -3 -3 -2 -2 -2 -2 -2 -2 -2 -2
-4 -3 -2 -2 -3 -2 -1 -1 -2 -2 -2 -3 -3 -2 -1 -1 -1 -1 -1 -1 -2 -2 -2 -2 -2 -2 -2 -2 -2 -3 -3 -3 -3 -3 -3 -3 -3 -3 -3 -3 -3 -3 -3 -3
-4 -3 -2 -3 -3 -2 -2 -2 -2 -2 -2 -2 -2 -2 -2 -2 -2 -2 -2 -2 -2 -2 -2 -2 -2 -3 -3 -3 -3 -3 -3 -3 -3 -3 -4 -4 -4 -4 -4 -4 -4 -4 -3 -3
-3 -2 -3 -3 -3 -2 -2 -2 -2 -2 -2 -2 -3 -3 -3 -3 -2 -2 -2 -2 -2 -3 -3 -3 -3 -3 -3 -3 -3 -3 -3 -3 -4 -4 -4 -4 -4 -4 -4 -4 -4 -4 -4 -4
-5 -5 -4 -3 -2 -2 -2 -2 -2 -2 -2 -3 -3 -3 -3 -3 -3 -3 -3 -3 -3 -3 -3 -3 -3 -4 -4 -4 -4 -4 -4 -4 -4 -4 -4 -4 -5 -5 -5 -5 -5 -5 -5 -5
-6 -5 -4 -3 -2 -2 -2 -2 -2 -2 -3 -3 -3 -3 -3 -3 -3 -3 -3 -4 -4 -4 -4 -4 -4 -4 -4 -4 -4 -4 -4 -4 -5 -5 -5 -5 -5 -5 -5 -5 -5 -5 -5 -5
-4 -4 -4 -3 -2 -2 -2 -2 -3 -3 -3 -3 -3 -3 -3 -4 -4 -4 -4 -4 -4 -4 -4 -4 -4 -4 -4 -5 -5 -5 -5 -5 -5 -5 -5 -6 -6 -5 -5 -6 -6 -6 -6 -6
-3 -3 -3 -3 -3 -3 -3 -3 -3 -3 -3 -4 -4 -4 -4 -4 -4 -4 -4 -4 -4 -4 -4 -4 -4 -5 -5 -5 -5 -5 -5 -5 -5 -6 -6 -6 -6 -6 -6 -5 -6 -6 -6 -6
-3 -3 -4 -3 -3 -3 -3 -4 -4 -4 -4 -4 -4 -4 -4 -4 -4 -4 -4 -4 -4 -5 -5 -5 -5 -5 -5 -5 -5 -5 -5 -6 -6 -6 -6 -6 -6 -6 -6 -6 -6 -6 -6 -6
-3 -4 -4 -4 -4 -4 -4 -4 -4 -4 -4 -4 -4 -4 -4 -4 -4 -5 -5 -5 -5 -5 -5 -5 -5 -5 -5 -5 -5 -6 -6 -6 -6 -6 -6 -7 -7 -7 -7 -7 -6 -6 -6 -6
-4 -4 -4 -4 -4 -4 -4 -4 -5 -5 -5 -5 -5 -5 -5 -5 -5 -5 -5 -5 -5 -5 -5 -5 -5 -5 -6 -6 -6 -6 -6 -6 -6 -7 -7 -7 -7 -7 -7 -7 -7 -7 -7 -7
-5 -5 -5 -5 -5 -5 -5 -5 -5 -5 -5 -5 -5 -5 -5 -5 -5 -5 -5 -6 -6 -6 -6 -6 -6 -6 -6 -6 -6 -6 -6 -6 -7 -7 -7 -7 -7 -7 -7 -7 -7 -7 -7 -7
-5 -5 -5 -5 -5 -5 -5 -5 -5 -5 -5 -5 -5 -6 -6 -6 -6 -6 -6 -6 -6 -6 -6 -6 -6 -6 -6 -6 -6 -7 -7 -7 -7 -7 -7 -7 -7 -7 -7 -7 -7 -7 -7 -7
-5 -5 -5 -5 -5 -5 -5 -6 -6 -6 -6 -6 -6 -6 -6 -6 -6 -6 -6 -6 -6 -6 -6 -6 -6 -6 -6 -7 -7 -7 -7 -7 -7 -7 -8 -8 -7 -7 -8 -7 -7 -7 -7 -7
-5 -5 -5 -5 -6 -6 -6 -6 -6 -6 -6 -6 -6 -6 -6 -6 -6 -6 -7 -7 -7 -7 -7 -7 -7 -7 -7 -7 -7 -7 -7 -7 -7 -8 -8 -8 -8 -8 -8 -8 -7 -7 -7 -7
-6 -6 -6 -6 -6 -6 -6 -6 -6 -6 -6 -6 -6 -6 -6 -7 -7 -7 -7 -7 -7 -7 -7 -7 -7 -7 -7 -7 -7 -7 -7 -8 -8 -8 -8 -8 -8 -8 -8 -8 -7 -7 -7 -7
-6 -6 -6 -6 -6 -6 -6 -6 -6 -6 -6 -7 -7 -7 -7 -7 -7 -7 -7 -7 -7 -7 -7 -7 -7 -7 -8 -8 -8 -8 -8 -8 -8 -8 -8 -8 -8 -8 -8 -8 -8 -8 -7 -7
-6 -6 -6 -6 -6 -6 -6 -6 -6 -6 -7 -7 -7 -7 -7 -7 -7 -7 -7 -7 -7 -7 -7 -7 -8 -8 -8 -8 -8 -8 -8 -8 -8 -8 -8 -8 -8 -8 -8 -8 -8 -8 -8 -7
-6 -6 -6 -6 -7 -7 -7 -7 -7 -7 -7 -7 -7 -7 -7 -7 -7 -8 -8 -8 -8 -8 -8 -8 -8 -8 -8 -8 -8 -8 -8 -8 -8 -8 -8 -8 -8 -8 -8 -8 -8 -8 -8 -8
-6 -6 -7 -7 -7 -7 -7 -7 -7 -7 -7 -7 -7 -7 -7 -8 -8 -8 -8 -8 -8 -8 -8 -8 -8 -8 -8 -8 -8 -8 -8 -8 -8 -8 -8 -8 -8 -8 -8 -8 -8 -8 -8 -8
-7 -7 -7 -7 -7 -7 -7 -7 -7 -7 -7 -7 -7 -7 -8 -8 -8 -8 -8 -8 -8 -8 -8 -8 -8 -8 -8 -8 -8 -8 -8 -8 -8 -8 -8 -8 -8 -8 -8 -8 -8 -8 -8 -8
-7 -7 -7 -7 -7 -7 -7 -7 -8 -8 -8 -8 -8 -8 -8 -8 -8 -8 -8 -8 -8 -8 -8 -8 -8 -8 -8 -8 -8 -8 -8 -8 -9 -9 -9 -8 -8 -8 -8 -8 -8 -8 -8 -8
Wind_Speed
3 3 3 5 7 7 9 9 9 9 9 11 8 6 5 4 3 2 2 2 2 2 2 2 2 2 3 3 3 3 3 3 3 3 3 3 3 3 3 3 4 3 3 3
2 2 3 6 8 9 10 8 9 9 11 9 6 3 4 4 3 3 4 3 3 3 2 2 2 2 3 3 3 3 3 4 4 4 4 4 4 3 3 4 4 3 3 3
2 3 3 7 9 10 7 7 8 11 10 4 4 5 5 5 5 5 5 4 4 4 3 3 3 2 3 3 3 3 3 4 4 4 4 4 4 4 4 4 4 4 4 4
1 2 6 6 2 5 6 7 7 6 6 5 6 5 5 5 6 6 5 4 4 3 3 3 2 2 2 2 2 3 3 4 4 4 4 4 4 4 4 4 4 4 4 4
2 3 8 6 2 4 5 6 6 7 7 5 3 3 4 4 4 5 5 4 4 3 3 2 2 2 1 2 2 3 4 4 4 4 4 4 4 4 4 4 4 4 4 4
3 3 6 5 1 1 2 5 4 5 6 4 0 2 5 2 1 2 3 2 2 2 2 2 2 1 1 2 2 4 4 5 4 4 4 5 5 4 4 4 4 4 4 4
5 5 8 4 1 3 3 5 2 3 4 4 5 5 4 3 3 2 2 2 2 2 2 2 2 1 2 3 4 4 4 4 4 4 4 4 4 4 4 4 4 4 5 5
5 5 8 2 4 5 6 3 2 3 3 4 4 4 3 3 3 2 2 2 1 1 2 2 2 1 3 4 4 3 4 4 4 4 4 3 3 4 3 3 3 4 4 5
8 7 3 4 5 4 2 3 3 3 3 3 3 4 4 3 3 3 2 2 2 2 2 2 2 2 3 4 3 3 3 3 4 4 4 3 3 3 3 2 2 3 4 4
4 7 5 5 4 4 3 4 4 3 3 3 4 4 4 3 3 3 3 2 2 1 2 3 2 2 3 3 2 2 3 4 4 3 4 3 3 3 3 3 3 3 4 4
5 6 5 4 5 5 4 3 3 3 2 3 4 4 4 4 4 3 3 2 2 2 3 4 3 3 3 3 2 2 3 3 3 3 4 4 3 3 3 4 4 4 4 4
6 5 4 5 4 3 3 4 4 3 3 3 3 4 4 4 4 3 3 2 2 2 3 3 3 3 3 3 2 2 3 3 3 3 3 3 3 4 5 5 7 7 7 7
4 2 3 4 3 2 3 3 3 3 4 4 3 3 3 3 3 2 3 3 3 3 3 3 3 4 4 3 2 2 3 3 3 3 3 3 3 3 4 5 6 6 7 8
3 2 3 3 3 2 2 2 2 2 3 3 3 2 2 2 2 2 3 3 3 3 3 3 3 4 4 3 2 3 3 4 3 3 3 3 3 3 3 4 5 4 5 7
3 3 4 3 3 2 2 1 1 2 2 2 2 2 2 2 3 4 4 3 2 2 3 3 3 5 4 3 2 3 3 3 3 3 3 3 3 3 3 4 4 5 5 5
3 3 2 2 3 3 2 2 3 4 3 3 3 3 3 3 3 4 3 2 2 3 4 4 4 4 3 2 3 2 3 4 4 3 3 3 3 3 3 4 4 4 4 4
2 3 3 3 4 4 4 4 4 4 3 4 4 3 2 2 2 3 3 3 3 4 4 4 4 4 3 3 2 2 2 3 4 3 3 3 3 3 3 4 4 4 4 5
4 4 4 4 5 5 5 4 3 4 4 4 3 2 2 2 3 4 4 3 3 4 4 4 4 3 3 3 2 2 2 2 2 3 3 3 3 3 3 4 4 5 4 5
2 3 3 3 4 4 4 3 3 3 3 2 2 3 3 4 4 4 3 3 3 4 4 4 5 3 3 3 3 2 2 2 2 3 3 4 4 3 3 4 4 4 4 4
1 1 1 2 1 1 2 2 2 2 2 2 2 2 3 3 3 3 3 3 4 4 4 4 3 2 3 3 3 1 2 2 2 3 3 3 3 4 4 4 4 4 4 4
2 2 2 2 2 2 1 1 1 2 2 2 2 3 3 4 3 2 2 4 4 3 3 4 3 2 2 2 3 1 2 2 2 3 3 3 3 4 4 4 4 4 4 4
1 1 2 2 1 2 2 2 1 1 2 2 2 2 2 3 3 2 3 4 4 5 3 2 2 3 3 3 1 2 2 2 2 3 3 3 3 4 4 4 4 4 4 4
2 2 2 2 1 2 2 2 1 1 2 2 2 2 2 3 2 2 4 3 2 4 3 2 3 5 4 2 1 2 2 2 3 3 3 3 4 4 4 4 4 4 4 4
1 1 1 1 1 1 2 3 2 2 2 2 2 3 2 2 2 2 3 4 4 4 2 3 5 4 3 1 1 2 2 3 3 3 3 3 3 4 4 4 4 4 4 5
1 1 1 1 1 1 2 2 2 2 2 2 3 2 2 2 3 3 3 3 4 4 3 4 4 4 2 1 2 2 3 3 3 3 3 3 4 4 4 4 4 4 4 4
1 1 1 2 2 2 1 1 1 2 2 2 3 2 2 2 2 2 2 2 3 3 2 2 3 3 2 2 2 3 3 4 4 4 4 4 4 4 4 4 5 4 4 4
1 1 1 2 2 1 1 1 2 2 2 2 3 3 2 2 2 2 2 2 2 2 2 2 2 2 2 2 3 3 3 3 3 4 4 4 4 4 4 5 4 4 4 4
Wind_Direction
250 264 221 230 228 207 208 210 216 240 244 261 265 272 281 280 282 281 273 273 274 288 302 313 324 333 335 336 340 342 344 341 330 327 326 325 323 320 320 320 312 309 309 306
294 283 259 261 245 226 228 228 232 252 265 262 267 265 265 264 259 258 259 263 272 283 289 295 301 312 325 327 329 336 333 323 324 329 328 324 320 319 321 319 312 313 308 304
259 315 334 270 235 213 212 211 199 227 243 247 260 258 253 249 250 253 256 256 255 262 266 273 279 290 294 302 318 326 322 318 321 323 320 317 317 321 317 313 314 309 304 300
181 51 247 252 224 199 213 235 217 235 255 248 248 268 263 242 236 248 251 253 255 259 267 271 271 287 292 302 310 312 314 312 315 315 313 312 313 310 310 310 310 306 303 300
155 233 276 285 235 178 197 262 230 231 254 270 285 315 288 241 216 229 243 247 248 251 255 263 270 277 294 304 304 307 305 303 304 306 305 306 305 304 306 308 309 305 302 307
156 201 246 260 220 180 119 281 251 212 234 249 153 276 274 278 252 255 269 262 257 260 261 263 273 261 254 278 290 290 293 295 298 299 296 296 297 300 303 301 302 307 307 307
190 226 262 257 212 123 175 253 267 220 230 216 214 232 259 298 304 284 286 275 250 235 250 254 260 248 259 272 276 285 295 300 301 299 294 293 299 300 300 304 309 311 309 309
175 211 253 207 140 187 228 276 258 241 232 228 243 268 278 279 284 291 302 300 279 261 278 277 251 233 264 273 283 293 296 299 300 301 300 306 307 307 305 304 309 309 309 312
197 218 260 192 213 237 239 250 248 235 241 228 244 260 267 270 273 284 290 289 291 268 286 295 279 243 258 280 292 301 306 305 305 308 308 304 296 298 304 301 298 304 308 310
245 263 259 254 264 270 249 248 255 246 244 226 241 257 262 265 271 278 287 281 277 271 280 292 289 283 270 283 288 298 303 305 306 310 311 307 300 294 293 290 290 294 298 299
252 276 295 268 250 258 263 263 274 277 258 237 236 254 252 260 268 271 280 282 267 255 270 280 289 296 300 295 289 292 298 301 307 309 305 305 304 291 287 273 271 281 281 282
232 232 217 254 261 255 254 265 264 267 278 264 235 247 257 260 262 264 270 272 278 277 281 286 291 296 298 291 279 284 299 304 304 304 303 303 305 309 301 290 293 292 285 286
238 254 233 260 278 248 245 268 271 259 254 265 268 248 251 263 266 268 271 273 270 274 280 287 293 295 294 285 278 266 271 286 292 294 296 297 299 305 310 315 309 305 305 303
247 253 269 262 266 278 275 284 290 286 275 263 266 267 257 263 275 276 275 276 281 286 287 283 287 290 290 282 275 271 275 283 288 281 283 287 289 290 292 300 309 311 311 310
252 241 242 270 288 299 296 292 299 294 295 298 285 269 261 263 271 277 285 292 299 295 290 287 289 292 294 282 277 274 280 283 285 285 282 283 286 288 290 290 293 300 309 312
284 283 259 257 269 280 287 271 262 271 277 278 282 279 269 262 271 283 290 285 280 284 285 282 280 286 291 286 285 282 280 288 298 295 292 292 292 291 291 291 294 295 299 303
241 269 266 273 271 278 271 258 246 253 261 264 267 274 278 281 290 293 298 294 277 275 277 273 278 290 288 280 274 274 280 283 293 299 297 293 290 287 286 286 289 289 290 294
228 235 239 244 252 266 279 273 259 257 259 261 267 268 264 258 266 279 290 304 309 303 289 274 277 287 281 275 273 272 275 281 286 287 293 297 296 292 291 289 287 289 296 299
258 250 263 266 257 253 259 267 266 261 262 256 253 257 259 259 261 274 287 292 287 289 292 293 298 306 292 286 297 270 273 285 293 296 295 296 305 302 299 294 289 288 292 295
310 304 302 304 298 258 265 276 274 276 271 255 255 265 274 276 273 275 278 271 261 261 277 291 295 291 290 288 304 277 271 281 289 294 299 299 301 300 297 295 291 287 287 288
324 330 334 329 325 316 285 272 269 277 285 266 247 259 272 284 282 270 270 284 283 281 286 293 301 291 291 293 303 290 283 286 286 286 288 292 297 300 297 295 293 290 287 287
311 315 316 318 326 323 319 308 277 273 287 287 277 274 283 294 298 292 267 259 279 300 310 295 289 290 303 310 306 297 292 291 288 287 286 288 291 294 296 295 291 290 289 289
301 296 298 301 299 304 322 324 308 290 282 279 275 274 273 277 276 275 290 289 290 299 310 291 297 307 317 331 315 301 297 293 290 287 287 288 286 287 291 294 292 290 288 288
303 304 308 313 360 12 333 322 326 316 297 290 276 266 264 284 289 265 268 294 305 307 309 300 309 315 328 341 312 304 298 293 290 289 290 291 290 290 291 293 295 297 293 289
292 294 324 349 330 295 288 316 336 334 329 319 308 297 275 247 254 282 294 295 302 316 319 310 314 323 334 316 302 298 293 286 288 291 288 291 292 294 294 294 294 296 297 293
286 283 282 270 259 267 286 303 307 308 313 317 320 316 310 298 277 283 296 301 301 313 320 315 319 318 315 304 297 295 293 298 303 302 299 297 294 294 294 295 294 295 296 295
325 324 325 324 312 294 291 289 281 285 284 284 298 305 311 313 309 304 302 307 312 318 317 313 311 307 303 300 298 297 295 293 294 294 294 293 291 290 290 291 293 296 295 295
Height
1489 1487 1487 1487 1486 1489 1490 1488 1489 1482 1481 1472 1471 1471 1470 1469 1469 1469 1469 1468 1468 1468 1467 1467 1467 1467 1466 1466 1465 1465 1464 1463 1462 1462 1461 1460 1459 1458 1458 1457 1457 1456 1456 1456
1489 1487 1486 1485 1482 1483 1484 1484 1483 1480 1476 1469 1469 1469 1468 1467 1467 1467 1466 1466 1466 1466 1465 1465 1464 1464 1463 1463 1462 1462 1461 1460 1460 1459 1458 1457 1456 1455 1455 1454 1453 1453 1452 1452
1490 1490 1486 1484 1477 1476 1476 1475 1476 1475 1469 1467 1467 1466 1465 1465 1465 1464 1464 1464 1464 1463 1463 1463 1462 1461 1460 1460 1460 1459 1458 1458 1457 1456 1455 1454 1453 1452 1451 1451 1450 1449 1449 1448
1492 1492 1488 1471 1470 1469 1470 1469 1469 1467 1465 1464 1464 1463 1463 1463 1462 1462 1462 1461 1461 1461 1460 1460 1460 1459 1458 1458 1457 1456 1456 1455 1454 1453 1452 1451 1450 1449 1448 1448 1447 1446 1445 1445
1494 1492 1482 1470 1468 1469 1470 1468 1464 1464 1463 1463 1462 1461 1460 1460 1460 1460 1459 1459 1459 1458 1458 1458 1457 1456 1456 1455 1454 1454 1453 1452 1451 1450 1449 1448 1447 1447 1446 1445 1444 1443 1442 1442
1493 1488 1481 1466 1466 1465 1468 1467 1460 1460 1460 1460 1461 1463 1459 1457 1457 1457 1457 1456 1456 1456 1455 1455 1454 1454 1453 1452 1451 1451 1450 1449 1449 1448 1447 1446 1445 1444 1443 1442 1441 1440 1439 1439
1488 1487 1474 1465 1464 1466 1470 1463 1458 1457 1457 1458 1458 1458 1457 1455 1455 1455 1454 1454 1453 1452 1452 1452 1451 1451 1450 1449 1449 1448 1447 1447 1446 1445 1444 1443 1442 1441 1440 1439 1438 1437 1436 1435
1485 1483 1472 1462 1463 1464 1461 1457 1456 1455 1455 1455 1454 1454 1453 1453 1453 1452 1451 1451 1450 1449 1449 1449 1448 1447 1446 1446 1446 1445 1444 1444 1443 1442 1441 1440 1439 1438 1437 1436 1434 1433 1432 1431
1471 1466 1460 1458 1457 1457 1456 1455 1454 1454 1453 1453 1452 1451 1450 1450 1449 1449 1449 1448 1447 1446 1446 1445 1445 1444 1443 1443 1443 1442 1441 1440 1439 1438 1438 1437 1436 1434 1433 1432 1431 1430 1429 1428
1467 1460 1457 1456 1455 1455 1454 1453 1452 1452 1451 1451 1449 1448 1448 1447 1447 1446 1446 1445 1444 1443 1443 1442 1442 1442 1441 1440 1439 1438 1437 1437 1436 1435 1434 1433 1432 1431 1430 1429 1428 1427 1426 1424
1463 1457 1454 1452 1452 1452 1451 1451 1450 1449 1449 1448 1447 1446 1445 1444 1444 1443 1443 1442 1442 1441 1440 1439 1439 1439 1438 1437 1436 1435 1434 1434 1433 1432 1431 1430 1429 1428 1427 1426 1426 1425 1423 1422
1455 1451 1452 1450 1449 1449 1448 1448 1447 1447 1446 1445 1445 1443 1443 1442 1441 1440 1440 1439 1439 1438 1437 1437 1436 1436 1435 1434 1433 1432 1431 1430 1429 1429 1427 1427 1426 1425 1424 1423 1422 1421 1420 1419
1448 1447 1447 1447 1446 1446 1446 1445 1445 1444 1443 1442 1442 1441 1440 1439 1438 1438 1437 1437 1436 1435 1435 1434 1433 1433 1432 1431 1431 1430 1429 1427 1426 1425 1424 1423 1422 1421 1420 1420 1419 1417 1416 1415
1445 1445 1444 1444 1444 1443 1443 1442 1442 1441 1441 1440 1439 1438 1437 1436 1436 1435 1435 1434 1434 1433 1433 1432 1431 1430 1430 1429 1428 1427 1426 1425 1424 1423 1422 1421 1419 1418 1417 1415 1414 1413 1412 1411
1442 1442 1442 1441 1440 1440 1440 1439 1439 1438 1437 1437 1436 1435 1435 1434 1433 1433 1432 1432 1431 1430 1430 1429 1429 1428 1427 1426 1425 1424 1423 1422 1421 1420 1419 1418 1416 1415 1414 1413 1411 1409 1408 1407
1439 1439 1438 1438 1437 1437 1437 1436 1436 1435 1434 1434 1433 1433 1432 1431 1431 1430 1430 1429 1428 1428 1427 1427 1426 1425 1424 1423 1422 1421 1420 1419 1418 1417 1416 1415 1413 1412 1411 1410 1408 1406 1405 1403
1436 1435 1434 1434 1434 1434 1434 1433 1433 1432 1431 1431 1430 1430 1429 1428 1428 1427 1427 1427 1426 1425 1425 1424 1423 1423 1422 1421 1420 1418 1417 1416 1415 1414 1413 1412 1410 1409 1408 1407 1405 1404 1402 1401
1433 1433 1432 1432 1431 1431 1430 1430 1430 1429 1429 1428 1428 1427 1426 1426 1425 1425 1424 1424 1423 1423 1422 1422 1421 1420 1419 1418 1417 1416 1415 1414 1413 1411 1410 1409 1408 1406 1405 1404 1402 1401 1399 1398
1430 1430 1430 1430 1429 1428 1428 1427 1427 1427 1426 1426 1425 1424 1424 1423 1423 1422 1421 1421 1420 1419 1420 1419 1418 1418 1417 1416 1415 1414 1412 1411 1410 1409 1408 1406 1405 1404 1402 1401 1399 1398 1397 1396
1428 1428 1427 1427 1427 1426 1426 1425 1425 1424 1424 1423 1423 1422 1421 1421 1420 1420 1419 1418 1418 1417 1417 1416 1416 1415 1414 1413 1412 1411 1410 1409 1408 1406 1405 1404 1402 1401 1400 1398 1397 1396 1394 1393
1426 1426 1425 1425 1425 1425 1424 1424 1423 1422 1422 1421 1421 1420 1419 1419 1418 1417 1416 1416 1416 1415 1415 1414 1413 1413 1412 1411 1410 1409 1408 1406 1405 1404 1403 1401 1400 1399 1397 1396 1395 1393 1392 1390
1425 1425 1424 1424 1423 1423 1422 1422 1421 1421 1420 1419 1419 1418 1417 1417 1416 1415 1415 1414 1414 1413 1413 1412 1411 1410 1410 1409 1407 1406 1405 1404 1403 1402 1401 1399 1398 1396 1395 1394 1392 1391 1389 1388
1424 1424 1423 1423 1422 1422 1421 1421 1420 1420 1419 1418 1417 1417 1416 1415 1415 1414 1413 1413 1412 1411 1411 1410 1409 1409 1408 1406 1405 1404 1403 1402 1401 1400 1399 1398 1396 1395 1393 1391 1390 1389 1387 1386
1423 1423 1422 1422 1421 1421 1420 1420 1419 1419 1418 1417 1417 1416 1415 1414 1413 1413 1412 1411 1410 1410 1409 1408 1407 1407 1406 1404 1403 1402 1401 1400 1399 1398 1397 1396 1394 1392 1391 1389 1388 1386 1385 1384
1422 1421 1421 1420 1420 1419 1419 1419 1418 1418 1417 1416 1416 1415 1414 1413 1412 1411 1411 1410 1409 1408 1407 1407 1406 1405 1404 1403 1402 1401 1400 1399 1397 1396 1395 1393 1392 1390 1389 1387 1386 1384 1383 1381
1420 1420 1419 1419 1419 1418 1418 1417 1417 1416 1416 1415 1414 1414 1413 1412 1411 1410 1409 1408 1408 1407 1406 1405 1404 1403 1402 1401 1400 1399 1398 1396 1395 1394 1393 1391 1390 1389 1387 1386 1384 1382 1381 1379
1419 1418 1418 1417 1417 1417 1417 1416 1415 1415 1414 1414 1413 1412 1411 1411 1410 1409 1408 1407 1406 1405 1404 1403 1402 1401 1400 1399 1398 1397 1396 1394 1393 1392 1391 1389 1388 1387 1385 1384 1383 1381 1379 1378